Location: �quirre
(50.4736°N, 2.2351°E)
Time: 15:21:46
(UTC+00:00)

GENESIS II - Pass Details

Date: 07 August 2020
Orbit: 490 x 538 km, 64.5° (Epoch: 18 September)

Event Time Altitude Azimuth Distance (km) Brightness Sun altitude
Rises 00:01:16 0° 319° (NW) 2,693 8.6 -23.2°
Reaches altitude 10° 00:03:29 10° 321° (NW) 1,794 7.6 -23.2°
Maximum altitude 00:07:30 74° 47° (NE) 554 4.3 -23.1°
Enters shadow 00:07:31 74° 48° (NE) 554 4.3 -23.1°
